Погода в Адыгейске

Россия / Республика Адыгея     44°53′05″N   39°11′26″E
темп.,
°C
ветер,
м/с
пор.,
м/с
влажн.,
%
обл.,
%
осадки,
мм/ч
давл.,
гПа
погр.,
м
23 апреля, пт
пт2300:00+9з33865 0.0 102464
03:00+8юз22825 0.0 102552
06:00+8ю22830 0.0 102549
09:00+12юз23723 0.0 1025303
12:00+16юз23560 0.0 1024890
15:00+17юз4549100 0.0 10221214
18:00+15юз2465100 0.0 102077
21:00+12ю2264100 0.0 102011
24 апреля, сб
сб2400:00+11ююз2274100 0.0 101914
03:00+11зсз5970100 0.1 1020229
06:00+10ююз48746 0.0 1018125
09:00+15зюз576598 0.0 1019505
12:00+17юз696099 0.1 10191259
15:00+15зсз567399 0.4 1020743
18:00+13зсз4673100 0.1 1021249
21:00+11сз3665100 0.1 1022175
25 апреля, вс
вс2500:00+9с2267100 0.0 102387
03:00+9всв2367100 0.0 1022102
06:00+7св4573100 0.0 1022149
09:00+11всв5766100 0.0 1021487
12:00+11всв5766100 0.1 1020743
15:00+9св6987100 3.3 1019474
18:00+8св81294100 6.1 1017478
21:00+8всв71195100 11.4 1017405
26 апреля, пн
пн2600:00+8всв5895100 0.5 1016449
03:00+8св3595100 0.6 1016394
06:00+8св3496100 0.4 1015313
09:00+9в2395100 1.4 1015243
12:00+9ссв2296100 5.3 1015190
15:00+9ссз3396100 10.6 1015244
18:00+10ссз3489100 0.8 1016417
21:00+10ссз348699 0.8 1017189
27 апреля, вт
вт2700:00+8ссз228479 0.0 101877
03:00+6ссз229028 0.0 101878
06:00+6зсз11885 0.0 101950
09:00+9зсз10781 0.0 1019330
12:00+12юз01691 0.0 1019743
15:00+14ююз02620 0.0 1018740
18:00+13юв227235 0.0 1018113
21:00+12вюв227896 0.0 101833